This is the latest recevied weather packets stored in our database for station/object K2ATL. If no packets are shown the sender has not sent any weather packets the latest 10 day(s).
| Time | Temp. | Humidity | Pressure | Rain* | Wind** | Luminosity | Snow |
|---|---|---|---|---|---|---|---|
| 1787947045 | 30° C | 56% | 1103 hPa | 0 mm | - | 770 W/m² | - |
| 1787946744 | 29.44° C | 63% | 1102.8 hPa | 0 mm | - | 785 W/m² | - |
| 1787946443 | 30° C | 61% | 1103.2 hPa | 0 mm | - | 804 W/m² | - |
| 1787946144 | 30° C | 55% | 1103.2 hPa | 0 mm | - | 812 W/m² | - |
| 1787945838 | 29.44° C | 63% | 1103.2 hPa | 0 mm | - | 824 W/m² | - |
| 1787945534 | 29.44° C | 56% | 1103.1 hPa | 0 mm | - | 830 W/m² | - |
| 1787945229 | 28.89° C | 57% | 1103.3 hPa | 0 mm | - | 828 W/m² | - |
| 1787944928 | 29.44° C | 63% | 1103.4 hPa | 0 mm | - | 834 W/m² | - |
| 1787944626 | 29.44° C | 61% | 1103.5 hPa | 0 mm | - | 839 W/m² | - |
| 1787944322 | 29.44° C | 66% | 1103.5 hPa | 0 mm | - | 848 W/m² | - |
| 1787944017 | 28.89° C | 62% | 1103.5 hPa | 0 mm | - | 859 W/m² | - |
| 1787943712 | 28.89° C | 57% | 1103.5 hPa | 0 mm | - | 866 W/m² | - |
| 1787943408 | 28.89° C | 58% | 1103.7 hPa | 0 mm | - | 869 W/m² | - |
| 1787943102 | 27.22° C | 60% | 1103.7 hPa | 0 mm | - | 870 W/m² | - |
| 1787942798 | 27.78° C | 65% | 1103.9 hPa | 0 mm | - | 869 W/m² | - |
| 1787942498 | 27.22° C | 67% | 1103.7 hPa | 0 mm | - | 888 W/m² | - |
| 1787942192 | 28.33° C | 65% | 1103.9 hPa | 0 mm | - | 894 W/m² | - |
| 1787941888 | 27.78° C | 64% | 1104 hPa | 0 mm | - | 892 W/m² | - |
| 1787941587 | 27.22° C | 62% | 1104.1 hPa | 0 mm | - | 926 W/m² | - |
| 1787941281 | 28.33° C | 67% | 1103.8 hPa | 0 mm | - | 966 W/m² | - |
| 1787940981 | 27.22° C | 60% | 1104 hPa | 0 mm | - | 930 W/m² | - |
| 1787940680 | 27.78° C | 63% | 1103.9 hPa | 0 mm | - | 931 W/m² | - |
| 1787940379 | 28.33° C | 64% | 1103.9 hPa | 0 mm | - | 909 W/m² | - |
| 1787940078 | 27.78° C | 62% | 1104.1 hPa | 0 mm | - | 921 W/m² | - |
| 1787939773 | 27.78° C | 64% | 1104 hPa | 0 mm | - | 909 W/m² | - |
* Rain latest hour (hover to see other rain measurements)
** Current wind speed in m/s (hover to see current wind gust speed)